Location: Clatteringshaws Loch
(55.0508°N, 4.2860°W)
Time: 23:03:05
(UTC+01:00)

SR - Visible Passes

Search period start: 29 July 2015 00:00
Search period end: 08 August 2015 00:00
Orbit: 581 x 879 km, 66.7° (Epoch: 29 July)

Date Brightness Start Highest point End Pass type
(mag) Time Alt. Az. Time Alt. Az. Time Alt. Az.
29 Jul ? 01:00:37 10° NW 01:04:51 30° NNE 01:09:25 10° E visible
29 Jul ? 02:42:37 10° NW 02:47:36 82° NE 02:53:02 10° SE visible
29 Jul ? 04:25:14 10° WNW 04:29:22 25° WSW 04:33:40 10° SSW visible
29 Jul ? 22:28:17 10° WNW 22:31:51 21° N 22:35:37 10° NE visible
30 Jul ? 00:11:32 10° NW 00:15:26 24° NNE 00:19:38 10° ENE visible
30 Jul ? 01:53:40 10° NW 01:58:30 55° NE 02:03:47 10° ESE visible
30 Jul ? 03:35:52 10° NW 03:40:36 40° WSW 03:45:40 10° S visible
30 Jul ? 23:22:19 10° NW 23:25:58 21° N 23:29:51 10° ENE visible
31 Jul ? 01:04:42 10° NW 01:09:17 39° NNE 01:14:16 10° E visible
31 Jul ? 02:46:44 10° NW 02:51:44 66° SW 02:57:08 10° SSE visible
31 Jul ? 04:30:13 10° WNW 04:33:11 15° WSW 04:36:03 10° SW visible
31 Jul ? 22:32:55 10° NW 22:36:27 21° N 22:40:13 10° NE visible
01 Aug ? 00:15:43 10° NW 00:19:58 29° NNE 00:24:34 10° E visible
01 Aug ? 01:57:43 10° NW 02:02:44 81° NE 02:08:12 10° SE visible
01 Aug ? 03:40:19 10° WNW 03:44:31 25° WSW 03:48:19 12° SSW visible
01 Aug ? 23:26:37 10° NW 23:30:33 24° NNE 23:34:46 10° ENE visible
02 Aug ? 01:08:45 10° NW 01:13:37 54° NE 01:18:56 10° ESE visible
02 Aug ? 02:50:58 10° NW 02:55:44 41° WSW 02:59:17 18° S visible
02 Aug ? 22:37:23 10° NW 22:41:04 22° N 22:44:59 10° ENE visible
03 Aug ? 00:19:48 10° NW 00:24:24 38° NNE 00:29:24 10° E visible
03 Aug ? 02:01:50 10° NW 02:06:52 67° SW 02:10:31 21° SSE visible
03 Aug ? 03:45:15 10° WNW 03:48:19 15° WSW 03:49:54 14° SW visible
03 Aug ? 23:30:48 10° NW 23:35:04 29° NNE 23:39:41 10° E visible
04 Aug ? 01:12:49 10° NW 01:17:51 80° NE 01:21:57 18° SE visible
04 Aug ? 02:55:23 10° WNW 02:59:39 26° WSW 03:01:21 22° SW visible
04 Aug ? 22:41:41 10° NW 22:45:38 24° NNE 22:49:53 10° ENE visible
05 Aug ? 00:23:51 10° NW 00:28:44 54° NE 00:33:31 13° ESE visible
05 Aug ? 02:06:03 10° NW 02:10:51 42° WSW 02:12:55 29° SSW visible
05 Aug ? 21:52:27 10° NW 21:56:10 22° N 22:00:07 10° ENE visible
05 Aug ? 23:34:53 10° NW 23:39:30 38° NNE 23:44:32 10° E visible
06 Aug ? 01:16:55 10° NW 01:21:58 68° SW 01:24:36 30° SSE visible
06 Aug ? 03:00:17 10° WNW 03:03:27 16° WSW 03:04:00 16° WSW visible
06 Aug ? 22:45:52 10° NW 22:50:10 29° NNE 22:54:48 10° E visible
07 Aug ? 00:27:54 10° NW 00:32:58 79° NE 00:36:21 24° SE visible
07 Aug ? 02:10:27 10° WNW 02:14:46 26° WSW 02:15:46 25° SW visible
07 Aug ? 21:56:45 10° NW 22:00:44 24° NNE 22:05:00 10° ENE visible
07 Aug ? 23:38:55 10° NW 23:43:50 53° NE 23:48:11 15° ESE visible
